Date String (YYYY-MM-DD hh:mm:ss) UTC,Instrument flags,Ambient pressure (hPa),Sample flow (lpm),Bypass flow (lpm),Sample temperature (°C),Ambient temperature (°C),ASC tube jacket temperature (°C),LED temperature (°C),Box temperature (°C),Sample RH (%),Span deviation,Mass concentration (μg/m³),Mass concentration (μg/m³),Mass concentration (μg/m³)
DateTimeUTC,F1_M11,P_M11,Q1_M11,Q2_M11,T1_M11,T2_M11,T3_M11,T4_M11,T5_M11,U1_M11,ZSPAN_M11,X2_M11,X0_M11,X1_M11
2022-05-22 15:00:00,,0832.4,5.00,0.00,24.1,23.3,00.0,33.0,26.1,19.0,0000.0,0000.00,0001.66,0000.00
2022-05-22 15:01:00,,0832.3,5.01,0.00,24.1,23.3,00.0,33.0,26.1,19.1,0000.0,0000.01,0001.70,0000.00
2022-05-22 15:02:00,,0832.4,4.99,0.00,24.1,23.3,00.0,33.0,26.1,19.4,0000.0,0000.02,0001.75,0000.00
2022-05-22 15:03:00,,0832.4,5.01,0.00,24.1,23.4,00.0,33.0,26.1,19.1,0000.0,0000.02,0000.09,0000.00
2022-05-22 15:04:00,,0832.3,4.99,0.00,24.2,23.4,00.0,33.0,26.1,18.8,0000.0,0000.02,0000.09,0000.00
2022-05-22 15:05:00,,0832.3,5.01,0.00,24.2,23.4,00.0,33.0,26.1,18.7,0000.0,0000.02,0000.09,0000.00
2022-05-22 15:06:00,,0832.3,5.00,0.00,24.2,23.4,00.0,33.0,26.1,18.3,0000.0,0000.02,0000.09,0000.00
2022-05-22 15:07:00,,0832.3,4.99,0.00,24.2,23.4,00.0,33.0,26.1,18.7,0000.0,0000.02,0000.09,0000.00
2022-05-22 15:08:00,,0832.3,5.00,0.00,24.2,23.4,00.0,33.0,26.1,19.3,0000.0,0000.02,0000.09,0000.00
2022-05-22 15:09:00,,0832.3,5.00,0.00,24.2,23.4,00.0,33.0,26.1,19.1,0000.0,0000.02,0000.09,0000.00
2022-05-22 15:10:00,,0832.3,4.99,0.00,24.2,23.4,00.0,33.1,26.2,18.8,0000.0,0000.02,0000.09,0000.00
2022-05-22 15:11:00,,0832.3,5.01,0.00,24.2,23.4,00.0,33.1,26.2,18.4,0000.0,0000.02,0000.10,0000.00
2022-05-22 15:12:00,,0832.3,4.99,0.00,24.2,23.4,00.0,33.1,26.2,18.8,0000.0,0000.02,0000.08,0000.00
2022-05-22 15:13:00,,0832.3,4.99,0.00,24.2,23.4,00.0,33.1,26.2,18.7,0000.0,0000.00,0000.01,0000.00
2022-05-22 15:14:00,,0832.2,5.01,0.00,24.2,23.4,00.0,33.1,26.2,19.5,0000.0,0000.00,0000.01,0000.00
2022-05-22 15:15:00,,0832.2,5.00,0.00,24.2,23.4,00.0,33.1,26.2,19.4,0000.0,0000.00,0000.01,0000.00
2022-05-22 15:16:00,,0832.2,5.00,0.00,24.2,23.4,00.0,33.1,26.2,19.8,0000.0,0000.01,0000.01,0000.00
2022-05-22 15:17:00,,0832.2,5.00,0.00,24.2,23.4,00.0,33.1,26.2,19.0,0000.0,0000.00,0000.01,0000.00
2022-05-22 15:18:00,,0832.2,5.01,0.00,24.2,23.4,00.0,33.1,26.2,19.8,0000.0,0000.00,0000.01,0000.00
2022-05-22 15:19:00,,0832.1,4.98,0.00,24.2,23.4,00.0,33.1,26.2,18.8,0000.0,0000.01,0000.01,0000.00
2022-05-22 15:20:00,,0832.2,5.00,0.00,24.2,23.4,00.0,33.1,26.2,19.3,0000.0,0000.01,0000.02,0000.01
2022-05-22 15:21:00,,0832.2,5.01,0.00,24.3,23.4,00.0,33.1,26.2,19.5,0000.0,0000.01,0000.01,0000.00
2022-05-22 15:22:00,,0832.2,4.99,0.00,24.3,23.4,00.0,33.1,26.3,18.8,0000.0,0000.01,0000.01,0000.00
2022-05-22 15:23:00,,0832.1,5.01,0.00,24.3,23.4,00.0,33.1,26.3,19.0,0000.0,0000.01,0000.01,0000.00
2022-05-22 15:24:00,,0832.1,5.00,0.00,24.3,23.5,00.0,33.2,26.3,18.9,0000.0,0000.01,0000.01,0000.00
2022-05-22 15:25:00,,0832.1,5.00,0.00,24.3,23.5,00.0,33.2,26.3,18.9,0000.0,0000.01,0000.01,0000.00
2022-05-22 15:26:00,,0832.1,5.00,0.00,24.3,23.5,00.0,33.2,26.3,18.5,0000.0,0000.01,0000.01,0000.00
2022-05-22 15:27:00,,0832.1,5.01,0.00,24.3,23.5,00.0,33.2,26.3,18.5,0000.0,0000.01,0000.02,0000.01
2022-05-22 15:28:00,,0832.1,4.99,0.00,24.3,23.5,00.0,33.2,26.3,18.0,0000.0,0000.01,0000.02,0000.01
2022-05-22 15:29:00,,0832.1,5.00,0.00,24.3,23.5,00.0,33.2,26.3,17.7,0000.0,0000.02,0000.04,0000.01
2022-05-22 15:30:00,,0832.1,5.00,0.00,24.3,23.5,00.0,33.2,26.3,19.0,0000.0,0000.03,0000.06,0000.00
2022-05-22 15:31:00,,0832.1,5.00,0.00,24.3,23.5,00.0,33.2,26.3,19.1,0000.0,0000.04,0000.06,0000.00
2022-05-22 15:32:00,,0832.0,5.00,0.00,24.3,23.5,00.0,33.2,26.3,17.7,0000.0,0000.04,0000.07,0000.00
2022-05-22 15:33:00,,0832.1,5.00,0.00,24.3,23.5,00.0,33.2,26.3,17.0,0000.0,0000.04,0000.07,0000.00
2022-05-22 15:34:00,,0832.1,4.99,0.00,24.4,23.5,00.0,33.2,26.3,17.2,0000.0,0000.04,0000.07,0000.00
2022-05-22 15:35:00,,0832.0,5.01,0.00,24.4,23.5,00.0,33.2,26.3,17.6,0000.0,0000.04,0000.07,0000.00
2022-05-22 15:36:00,,0832.0,4.98,0.00,24.4,23.6,00.0,33.2,26.3,17.4,0000.0,0000.05,0000.08,0000.00
2022-05-22 15:37:00,,0831.9,5.01,0.00,24.4,23.6,00.0,33.3,26.4,17.6,0000.0,0000.05,0000.09,0000.00
2022-05-22 15:38:00,,0831.9,4.99,0.00,24.4,23.6,00.0,33.3,26.3,18.4,0000.0,0000.05,0000.09,0000.00
2022-05-22 15:39:00,,0832.0,5.01,0.00,24.4,23.6,00.0,33.3,26.4,18.6,0000.0,0000.05,0000.09,0000.00
2022-05-22 15:40:00,,0832.0,4.99,0.00,24.4,23.7,00.0,33.3,26.4,19.1,0000.0,0000.04,0000.06,0000.00
2022-05-22 15:41:00,,0832.0,5.01,0.00,24.4,23.7,00.0,33.3,26.4,17.8,0000.0,0000.02,0000.04,0000.00
2022-05-22 15:42:00,,0832.0,5.01,0.00,24.5,23.7,00.0,33.3,26.5,17.3,0000.0,0000.02,0000.03,0000.00
2022-05-22 15:43:00,,0832.0,4.99,0.00,24.5,23.7,00.0,33.3,26.5,16.7,0000.0,0000.02,0000.03,0000.00
2022-05-22 15:44:00,,0831.9,5.01,0.00,24.5,23.8,00.0,33.3,26.5,17.0,0000.0,0000.02,0000.03,0000.00
2022-05-22 15:45:00,,0831.8,5.00,0.00,24.5,23.8,00.0,33.3,26.5,18.2,0000.0,0000.02,0000.03,0000.00
2022-05-22 15:46:00,,0831.7,5.00,0.00,24.5,23.8,00.0,33.4,26.5,18.7,0000.0,0000.02,0000.03,0000.00
2022-05-22 15:47:00,,0831.7,5.00,0.00,24.6,23.8,00.0,33.4,26.6,19.0,0000.0,0000.02,0000.02,0000.00
2022-05-22 15:48:00,,0831.7,4.99,0.00,24.6,23.8,00.0,33.4,26.6,18.6,0000.0,0000.01,0000.01,0000.00
2022-05-22 15:49:00,,0831.7,5.01,0.00,24.6,23.9,00.0,33.4,26.6,18.5,0000.0,0000.01,0000.01,0000.01
2022-05-22 15:50:00,,0831.7,5.00,0.00,24.6,23.9,00.0,33.4,26.6,18.5,0000.0,0000.01,0000.01,0000.01
2022-05-22 15:51:00,,0831.7,5.00,0.00,24.6,23.9,00.0,33.4,26.6,17.4,0000.0,0000.01,0000.01,0000.01
2022-05-22 15:52:00,,0831.7,5.00,0.00,24.6,23.9,00.0,33.4,26.6,17.2,0000.0,0000.01,0000.01,0000.01
2022-05-22 15:53:00,,0831.7,5.00,0.00,24.7,23.9,00.0,33.5,26.7,18.1,0000.0,0000.01,0000.01,0000.01
2022-05-22 15:54:00,,0831.6,4.99,0.00,24.7,24.0,00.0,33.5,26.7,18.2,0000.0,0000.01,0000.01,0000.01
2022-05-22 15:55:00,,0831.5,5.01,0.00,24.7,24.0,00.0,33.5,26.7,17.5,0000.0,0000.01,0000.07,0000.01
2022-05-22 15:56:00,,0831.6,5.00,0.00,24.7,24.0,00.0,33.5,26.7,18.0,0000.0,0000.02,0000.12,0000.01
2022-05-22 15:57:00,,0831.6,4.99,0.00,24.7,24.0,00.0,33.5,26.7,18.4,0000.0,0000.02,0000.12,0000.01
2022-05-22 15:58:00,,0831.6,5.01,0.00,24.7,24.0,00.0,33.5,26.7,17.5,0000.0,0000.02,0000.12,0000.01
2022-05-22 15:59:00,,0831.6,5.00,0.00,24.8,24.0,00.0,33.5,26.7,18.7,0000.0,0000.02,0000.11,0000.00
